Phasma-Dirac

operational
NORAD ID: 66746 Int'l Des: NNA 2025-276 Owner: LIBRE/ELKED Country: GR
NOTLE

About Phasma-Dirac

Description loading...

Live Position

Loading 3D Globe...

Upcoming Passes

Altitude History

Altitude vs Time

uPlot chart will show altitude changes over time

Two-Line Element Set

1 66746U 25276CJ 26047.13790992 .00018824 00000-0 86852-3 0 9995
2 66746 97.3753 122.5452 0012757 26.3031 333.8849 15.20207706 12059
Epoch: Feb 16, 2026 • Age: 13 hours

Current Status

Altitude 514.7 km
Velocity 7.61 km/s
Sub-Earth Point 40.20°N, 85.73°W
Launch Date Nov 28, 2025
Age 0.2 years
Type other

Technical Details

Classification Payload
Mass 5.00 kg
Dry Mass 5.00 kg
Total Mass 5.00 kg
Length 0.30 m
Diameter 0.10 m
Span 0.30 m
Shape Box
Manufacturer LIBRE
Bus Type Cubesat 3U
Phase Status In Orbit
Owner/State LIBRE/ELKED/GR

Large Constellations

Loading constellations...